Location: Kawakawa
(35.3830°S, 174.0670°E)
Time: 01:02:38
(UTC+12:00)

Cosmos 1666 Rocket - Pass Details

Date: 15 August 2020
Orbit: 605 x 632 km, 82.5° (Epoch: 19 September)

Event Time Altitude Azimuth Distance (km) Brightness Sun altitude
Rises 19:21:33 0° 182° (S) 2,919 7.0 -18.7°
Reaches altitude 10° 19:23:50 10° 178° (S) 2,001 6.1 -19.2°
Maximum altitude 19:28:12 57° 99° (E) 726 3.5 -20.1°
Enters shadow 19:30:14 29° 31° (NNE) 1,131 4.6 -20.5°
